Location: A�t Bou Chrif
(32.7193°N, 5.2385°W)
Time: 23:52:05
(UTC+00:00)

Cosmos 1408 Rocket - Pass Details

Date: 08 August 2020
Orbit: 600 x 632 km, 82.6° (Epoch: 18 September)

Event Time Altitude Azimuth Distance (km) Brightness Sun altitude
Rises 19:40:27 0° 187° (S) 2,905 6.8 -6.3°
Reaches altitude 10° 19:42:40 10° 188° (S) 2,003 6.0 -6.7°
Maximum altitude 19:47:08 83° 276° (W) 641 3.7 -7.6°
Drops below altitude 10° 19:51:37 10° 5° (N) 2,015 6.5 -8.4°
Sets 19:53:51 0° 6° (N) 2,924 7.3 -8.8°
